Time,TemperatureF,DewpointF,PressureIn,WindDirection,WindDirectionDegrees,WindSpeedMPH,WindSpeedGustMPH,Humidity,HourlyPrecipIn,Conditions,Clouds,dailyrainin,SoftwareType,DateUTC
2013-06-29 00:01:00,76.6,71.4,29.81,SW,225,0.0,0.0,84,0.00,,,0.00,WeatherCatV1.15B25,2013-06-29 04:01:00,
2013-06-29 00:06:00,76.5,71.3,29.81,SW,225,0.0,0.0,84,0.00,,,0.00,WeatherCatV1.15B25,2013-06-29 04:06:00,
2013-06-29 00:11:00,76.5,71.6,29.80,SW,225,0.0,0.0,85,0.00,,,0.00,WeatherCatV1.15B25,2013-06-29 04:11:00,
2013-06-29 00:16:00,76.6,71.8,29.80,SW,225,0.0,0.0,85,0.00,,,0.00,WeatherCatV1.15B25,2013-06-29 04:16:00,
2013-06-29 00:21:00,76.6,71.8,29.81,SW,225,0.0,0.0,85,0.00,,,0.00,WeatherCatV1.15B25,2013-06-29 04:21:00,
2013-06-29 00:26:00,76.6,71.8,29.80,SW,225,0.0,0.0,85,0.00,,,0.00,WeatherCatV1.15B25,2013-06-29 04:26:00,
2013-06-29 00:31:00,76.6,71.8,29.80,SW,225,0.0,0.0,85,0.00,,,0.00,WeatherCatV1.15B25,2013-06-29 04:31:00,
2013-06-29 00:36:00,76.6,71.8,29.80,SW,225,0.0,0.0,85,0.00,,,0.00,WeatherCatV1.15B25,2013-06-29 04:36:00,
2013-06-29 00:41:00,76.6,71.8,29.80,SW,225,0.0,0.0,85,0.00,,,0.00,WeatherCatV1.15B25,2013-06-29 04:41:00,
2013-06-29 00:46:00,76.6,72.1,29.79,SW,225,0.0,0.0,86,0.00,,,0.00,WeatherCatV1.15B25,2013-06-29 04:46:00,
2013-06-29 00:51:00,76.6,72.1,29.79,SW,225,0.0,0.0,86,0.00,,,0.00,WeatherCatV1.15B25,2013-06-29 04:51:00,
2013-06-29 00:56:00,76.6,72.1,29.79,SW,225,0.0,0.0,86,0.00,,,0.00,WeatherCatV1.15B25,2013-06-29 04:56:00,
2013-06-29 01:01:00,76.6,72.1,29.79,SW,225,0.0,0.0,86,0.00,,,0.00,WeatherCatV1.15B25,2013-06-29 05:01:00,
2013-06-29 01:06:00,76.6,72.1,29.79,SW,225,0.0,0.0,86,0.00,,,0.00,WeatherCatV1.15B25,2013-06-29 05:06:00,
2013-06-29 01:11:00,76.6,72.1,29.79,SW,225,0.0,0.0,86,0.00,,,0.00,WeatherCatV1.15B25,2013-06-29 05:11:00,
2013-06-29 01:16:00,76.6,72.5,29.78,SW,225,0.0,0.0,87,0.00,,,0.00,WeatherCatV1.15B25,2013-06-29 05:16:00,
2013-06-29 01:21:00,76.6,72.5,29.79,SW,225,0.0,0.0,87,0.00,,,0.00,WeatherCatV1.15B25,2013-06-29 05:21:00,
2013-06-29 01:26:00,76.6,72.5,29.79,WSW,247,0.0,0.0,87,0.00,,,0.00,WeatherCatV1.15B25,2013-06-29 05:26:00,
2013-06-29 01:31:00,76.6,72.5,29.79,SW,225,0.0,0.0,87,0.00,,,0.00,WeatherCatV1.15B25,2013-06-29 05:31:00,
2013-06-29 01:36:00,76.6,72.5,29.79,SW,225,0.0,0.0,87,0.00,,,0.00,WeatherCatV1.15B25,2013-06-29 05:36:00,
2013-06-29 01:41:00,76.6,72.5,29.79,SW,225,0.0,0.0,87,0.00,,,0.00,WeatherCatV1.15B25,2013-06-29 05:41:00,
2013-06-29 01:46:00,76.6,72.5,29.79,SW,225,0.0,0.0,87,0.00,,,0.00,WeatherCatV1.15B25,2013-06-29 05:46:00,
2013-06-29 01:51:00,76.6,72.5,29.78,SW,225,0.0,0.0,87,0.00,,,0.00,WeatherCatV1.15B25,2013-06-29 05:51:00,
2013-06-29 01:56:00,76.6,72.5,29.78,SSW,202,0.0,0.0,87,0.00,,,0.00,WeatherCatV1.15B25,2013-06-29 05:56:00,
2013-06-29 02:01:00,76.6,72.5,29.78,WSW,247,0.0,0.0,87,0.00,,,0.00,WeatherCatV1.15B25,2013-06-29 06:01:00,
2013-06-29 02:06:00,76.6,72.5,29.78,SW,225,0.0,0.0,87,0.00,,,0.00,WeatherCatV1.15B25,2013-06-29 06:06:00,
2013-06-29 02:11:00,76.6,72.5,29.78,SW,225,0.0,0.0,87,0.00,,,0.00,WeatherCatV1.15B25,2013-06-29 06:11:00,
2013-06-29 02:16:00,76.6,72.5,29.78,SW,225,0.0,0.0,87,0.00,,,0.00,WeatherCatV1.15B25,2013-06-29 06:16:00,
2013-06-29 02:21:00,76.6,72.5,29.78,SW,225,0.0,0.0,87,0.00,,,0.00,WeatherCatV1.15B25,2013-06-29 06:21:00,
2013-06-29 02:26:00,76.5,72.5,29.79,SW,225,0.0,0.0,88,0.00,,,0.00,WeatherCatV1.15B25,2013-06-29 06:26:00,
2013-06-29 02:31:00,76.6,72.9,29.79,WSW,247,0.0,0.0,88,0.00,,,0.00,WeatherCatV1.15B25,2013-06-29 06:31:00,
2013-06-29 02:36:00,76.5,72.7,29.79,SW,225,0.0,0.0,88,0.00,,,0.00,WeatherCatV1.15B25,2013-06-29 06:36:00,
2013-06-29 02:41:00,76.5,72.7,29.79,SW,225,0.0,0.0,88,0.00,,,0.00,WeatherCatV1.15B25,2013-06-29 06:41:00,
2013-06-29 02:46:00,76.5,72.7,29.79,SW,225,0.0,0.0,88,0.00,,,0.00,WeatherCatV1.15B25,2013-06-29 06:46:00,
2013-06-29 02:51:00,76.5,72.7,29.79,SW,225,0.0,0.0,88,0.00,,,0.00,WeatherCatV1.15B25,2013-06-29 06:51:00,
2013-06-29 02:56:00,76.3,72.5,29.79,SW,225,0.0,0.0,88,0.00,,,0.00,WeatherCatV1.15B25,2013-06-29 06:56:00,
2013-06-29 03:01:00,76.5,72.7,29.79,SW,225,0.0,0.0,88,0.00,,,0.00,WeatherCatV1.15B25,2013-06-29 07:01:00,
2013-06-29 03:06:00,76.3,72.5,29.79,SW,225,0.0,0.0,88,0.00,,,0.00,WeatherCatV1.15B25,2013-06-29 07:06:00,
2013-06-29 03:11:00,76.3,72.5,29.79,SW,225,0.0,0.0,88,0.00,,,0.00,WeatherCatV1.15B25,2013-06-29 07:11:00,
2013-06-29 03:16:00,76.3,72.5,29.79,SW,225,0.0,0.0,88,0.00,,,0.00,WeatherCatV1.15B25,2013-06-29 07:16:00,
2013-06-29 03:21:00,76.3,72.5,29.79,SW,225,0.0,0.0,88,0.00,,,0.00,WeatherCatV1.15B25,2013-06-29 07:21:00,
2013-06-29 03:26:00,76.3,72.5,29.79,SW,225,0.0,0.0,88,0.00,,,0.00,WeatherCatV1.15B25,2013-06-29 07:26:00,
2013-06-29 03:31:00,76.1,72.3,29.80,SW,225,0.0,0.0,88,0.00,,,0.00,WeatherCatV1.15B25,2013-06-29 07:31:00,
2013-06-29 03:36:00,76.3,72.5,29.79,SW,225,0.0,0.0,88,0.00,,,0.00,WeatherCatV1.15B25,2013-06-29 07:36:00,
2013-06-29 03:41:00,76.3,72.5,29.79,SW,225,0.0,0.0,88,0.00,,,0.00,WeatherCatV1.15B25,2013-06-29 07:41:00,
2013-06-29 03:46:00,76.3,72.5,29.79,SW,225,0.0,0.0,88,0.00,,,0.00,WeatherCatV1.15B25,2013-06-29 07:46:00,
2013-06-29 03:51:00,76.3,72.5,29.79,SW,225,0.0,0.0,88,0.00,,,0.00,WeatherCatV1.15B25,2013-06-29 07:51:00,
2013-06-29 03:56:00,76.3,72.5,29.80,SW,225,0.0,0.0,88,0.00,,,0.00,WeatherCatV1.15B25,2013-06-29 07:56:00,
2013-06-29 04:01:00,76.3,72.5,29.80,SW,225,0.0,0.0,88,0.00,,,0.00,WeatherCatV1.15B25,2013-06-29 08:01:00,
2013-06-29 04:06:00,76.1,72.7,29.80,SW,225,0.0,0.0,89,0.00,,,0.00,WeatherCatV1.15B25,2013-06-29 08:06:00,
2013-06-29 04:11:00,76.3,72.7,29.80,WSW,247,0.0,0.0,89,0.00,,,0.00,WeatherCatV1.15B25,2013-06-29 08:11:00,
2013-06-29 04:16:00,76.3,72.9,29.80,WSW,247,0.0,0.0,89,0.00,,,0.00,WeatherCatV1.15B25,2013-06-29 08:16:00,
2013-06-29 04:21:00,76.3,72.9,29.80,WSW,247,0.0,0.0,89,0.00,,,0.00,WeatherCatV1.15B25,2013-06-29 08:21:00,
2013-06-29 04:26:00,76.3,72.9,29.80,SW,225,0.0,0.0,89,0.00,,,0.00,WeatherCatV1.15B25,2013-06-29 08:26:00,
2013-06-29 04:31:00,76.3,72.9,29.80,SW,225,0.0,0.0,89,0.00,,,0.00,WeatherCatV1.15B25,2013-06-29 08:31:00,
2013-06-29 04:36:00,76.3,72.9,29.80,SW,225,0.0,0.0,89,0.00,,,0.00,WeatherCatV1.15B25,2013-06-29 08:36:00,
2013-06-29 04:41:00,76.3,72.9,29.80,SW,225,0.0,0.0,89,0.00,,,0.00,WeatherCatV1.15B25,2013-06-29 08:41:00,
2013-06-29 04:46:00,76.3,72.9,29.81,SW,225,0.0,0.0,89,0.00,,,0.00,WeatherCatV1.15B25,2013-06-29 08:46:00,
2013-06-29 04:51:00,76.3,72.9,29.81,SW,225,0.0,0.0,89,0.00,,,0.00,WeatherCatV1.15B25,2013-06-29 08:51:00,
2013-06-29 04:56:00,76.5,73.0,29.80,SW,225,0.0,0.0,89,0.00,,,0.00,WeatherCatV1.15B25,2013-06-29 08:56:00,
2013-06-29 05:04:00,76.3,72.9,29.80,SW,225,0.0,0.0,89,0.00,,,0.00,WeatherCatV1.15B25,2013-06-29 09:04:00,
2013-06-29 05:09:00,76.3,72.9,29.80,SE,135,0.0,0.0,89,0.00,,,0.00,WeatherCatV1.15B25,2013-06-29 09:09:00,
2013-06-29 05:14:00,76.5,73.0,29.80,SW,225,0.0,0.0,89,0.00,,,0.00,WeatherCatV1.15B25,2013-06-29 09:14:00,
2013-06-29 05:19:00,76.3,72.9,29.80,SW,225,0.0,0.0,89,0.00,,,0.00,WeatherCatV1.15B25,2013-06-29 09:19:00,
2013-06-29 05:24:00,76.5,73.0,29.80,SW,225,0.0,0.0,89,0.00,,,0.00,WeatherCatV1.15B25,2013-06-29 09:24:00,
2013-06-29 05:29:00,76.5,73.0,29.80,SW,225,0.0,0.0,89,0.00,,,0.00,WeatherCatV1.15B25,2013-06-29 09:29:00,
2013-06-29 05:34:00,76.5,73.0,29.81,SW,225,0.0,0.0,89,0.00,,,0.00,WeatherCatV1.15B25,2013-06-29 09:34:00,
2013-06-29 05:39:00,76.5,73.0,29.81,SW,225,0.0,0.0,89,0.00,,,0.00,WeatherCatV1.15B25,2013-06-29 09:39:00,
2013-06-29 05:44:00,76.5,73.0,29.80,SW,225,0.0,0.0,89,0.00,,,0.00,WeatherCatV1.15B25,2013-06-29 09:44:00,
2013-06-29 05:49:00,76.5,73.0,29.80,SW,225,0.0,0.0,89,0.00,,,0.00,WeatherCatV1.15B25,2013-06-29 09:49:00,
2013-06-29 05:54:00,76.6,73.2,29.81,SW,225,0.0,0.0,89,0.00,,,0.00,WeatherCatV1.15B25,2013-06-29 09:54:00,
2013-06-29 05:59:00,76.6,73.2,29.81,SW,225,0.0,0.0,89,0.00,,,0.00,WeatherCatV1.15B25,2013-06-29 09:59:00,
2013-06-29 06:06:00,76.6,73.2,29.80,SW,225,0.0,0.0,89,0.00,,,0.00,WeatherCatV1.15B25,2013-06-29 10:06:00,
2013-06-29 06:11:00,76.6,73.2,29.80,SW,225,0.0,0.0,89,0.00,,,0.00,WeatherCatV1.15B25,2013-06-29 10:11:00,
2013-06-29 06:16:00,76.6,73.2,29.81,SW,225,0.0,0.0,89,0.00,,,0.00,WeatherCatV1.15B25,2013-06-29 10:16:00,
2013-06-29 06:21:00,76.6,73.2,29.81,SW,225,0.0,0.0,89,0.00,,,0.00,WeatherCatV1.15B25,2013-06-29 10:21:00,
2013-06-29 06:26:00,76.6,73.2,29.81,SW,225,0.0,0.0,89,0.00,,,0.00,WeatherCatV1.15B25,2013-06-29 10:26:00,
2013-06-29 06:31:00,76.6,73.2,29.80,SW,225,0.0,0.0,89,0.00,,,0.00,WeatherCatV1.15B25,2013-06-29 10:31:00,
2013-06-29 06:36:00,76.6,73.2,29.80,SW,225,0.0,0.0,89,0.00,,,0.00,WeatherCatV1.15B25,2013-06-29 10:36:00,
2013-06-29 06:41:00,76.6,73.2,29.81,SW,225,0.0,0.0,89,0.00,,,0.00,WeatherCatV1.15B25,2013-06-29 10:41:00,
2013-06-29 06:46:00,76.6,73.2,29.80,SW,225,0.0,0.0,89,0.00,,,0.00,WeatherCatV1.15B25,2013-06-29 10:46:00,
2013-06-29 06:51:00,76.6,73.2,29.80,SW,225,0.0,0.0,89,0.00,,,0.00,WeatherCatV1.15B25,2013-06-29 10:51:00,
2013-06-29 06:56:00,76.6,73.2,29.80,SW,225,0.0,0.0,89,0.00,,,0.00,WeatherCatV1.15B25,2013-06-29 10:56:00,
2013-06-29 07:01:00,76.6,73.2,29.80,SW,225,0.0,0.0,89,0.00,,,0.00,WeatherCatV1.15B25,2013-06-29 11:01:00,
2013-06-29 07:06:00,76.6,73.2,29.81,SW,225,0.0,0.0,89,0.00,,,0.00,WeatherCatV1.15B25,2013-06-29 11:06:00,
2013-06-29 07:11:00,76.8,73.4,29.81,SW,225,0.0,0.0,89,0.00,,,0.00,WeatherCatV1.15B25,2013-06-29 11:11:00,
2013-06-29 07:19:00,76.8,73.4,29.82,SW,225,0.0,0.0,89,0.00,,,0.00,WeatherCatV1.15B25,2013-06-29 11:19:00,
2013-06-29 07:24:00,76.8,73.4,29.82,SW,225,0.0,0.0,89,0.00,,,0.00,WeatherCatV1.15B25,2013-06-29 11:24:00,
2013-06-29 07:29:00,76.8,73.4,29.82,SW,225,0.0,0.0,89,0.00,,,0.00,WeatherCatV1.15B25,2013-06-29 11:29:00,
2013-06-29 07:34:00,76.8,73.4,29.82,SW,225,0.0,0.0,89,0.00,,,0.00,WeatherCatV1.15B25,2013-06-29 11:34:00,
2013-06-29 07:39:00,76.8,73.4,29.82,SW,225,0.0,0.0,89,0.00,,,0.00,WeatherCatV1.15B25,2013-06-29 11:39:00,
2013-06-29 07:44:00,77.0,73.6,29.82,SW,225,0.0,0.0,89,0.00,,,0.00,WeatherCatV1.15B25,2013-06-29 11:44:00,
2013-06-29 07:49:00,77.0,73.6,29.81,SW,225,0.0,0.0,89,0.00,,,0.00,WeatherCatV1.15B25,2013-06-29 11:49:00,
2013-06-29 07:54:00,77.2,73.8,29.82,SW,225,0.0,0.0,89,0.00,,,0.00,WeatherCatV1.15B25,2013-06-29 11:54:00,
2013-06-29 07:59:00,77.2,73.8,29.81,SW,225,0.0,0.0,89,0.00,,,0.00,WeatherCatV1.15B25,2013-06-29 11:59:00,
2013-06-29 08:04:00,77.5,74.1,29.81,SW,225,0.0,0.0,89,0.00,,,0.00,WeatherCatV1.15B25,2013-06-29 12:04:00,
2013-06-29 08:09:00,77.5,74.1,29.81,SW,225,0.0,0.0,89,0.00,,,0.00,WeatherCatV1.15B25,2013-06-29 12:09:00,
2013-06-29 08:14:00,77.7,74.3,29.81,SW,225,0.0,0.0,89,0.00,,,0.00,WeatherCatV1.15B25,2013-06-29 12:14:00,
2013-06-29 08:19:00,77.7,74.3,29.81,SW,225,0.0,0.0,89,0.00,,,0.00,WeatherCatV1.15B25,2013-06-29 12:19:00,
2013-06-29 08:24:00,78.1,74.7,29.81,SW,225,0.0,0.0,89,0.00,,,0.00,WeatherCatV1.15B25,2013-06-29 12:24:00,
2013-06-29 08:29:00,78.1,74.7,29.81,SW,225,0.0,0.0,89,0.00,,,0.00,WeatherCatV1.15B25,2013-06-29 12:29:00,
2013-06-29 08:34:00,78.3,75.0,29.81,SW,225,0.0,0.0,89,0.00,,,0.00,WeatherCatV1.15B25,2013-06-29 12:34:00,
2013-06-29 08:39:00,78.4,75.0,29.81,SW,225,0.0,0.0,89,0.00,,,0.00,WeatherCatV1.15B25,2013-06-29 12:39:00,
2013-06-29 08:44:00,78.6,75.2,29.81,SW,225,0.0,0.0,89,0.00,,,0.00,WeatherCatV1.15B25,2013-06-29 12:44:00,
2013-06-29 08:49:00,78.8,75.4,29.81,SW,225,0.0,0.0,89,0.00,,,0.00,WeatherCatV1.15B25,2013-06-29 12:49:00,
2013-06-29 08:54:00,79.0,75.5,29.81,SW,225,0.0,0.0,89,0.00,,,0.00,WeatherCatV1.15B25,2013-06-29 12:54:00,
2013-06-29 08:59:00,79.2,75.7,29.81,WNW,292,0.0,0.0,89,0.00,,,0.00,WeatherCatV1.15B25,2013-06-29 12:59:00,
2013-06-29 09:04:00,79.5,75.7,29.81,SSW,202,0.0,0.0,88,0.00,,,0.00,WeatherCatV1.15B25,2013-06-29 13:04:00,
2013-06-29 09:09:00,79.7,76.2,29.81,SSW,202,0.0,0.0,89,0.00,,,0.00,WeatherCatV1.15B25,2013-06-29 13:09:00,
2013-06-29 09:14:00,80.1,76.2,29.81,North,0,0.0,0.0,88,0.00,,,0.00,WeatherCatV1.15B25,2013-06-29 13:14:00,
2013-06-29 09:19:00,80.4,76.5,29.81,SSE,157,0.0,0.0,88,0.00,,,0.00,WeatherCatV1.15B25,2013-06-29 13:19:00,
2013-06-29 09:24:00,80.4,76.2,29.81,SSE,157,0.0,0.0,87,0.00,,,0.00,WeatherCatV1.15B25,2013-06-29 13:24:00,
2013-06-29 09:29:00,80.8,76.5,29.82,SSW,202,0.0,0.0,87,0.00,,,0.00,WeatherCatV1.15B25,2013-06-29 13:29:00,
2013-06-29 09:34:00,81.1,76.5,29.81,SW,225,0.0,0.0,86,0.00,,,0.00,WeatherCatV1.15B25,2013-06-29 13:34:00,
2013-06-29 09:39:00,81.3,76.7,29.82,SSW,202,0.0,0.0,86,0.00,,,0.00,WeatherCatV1.15B25,2013-06-29 13:39:00,
2013-06-29 09:44:00,81.5,76.9,29.82,SSW,202,0.0,0.0,86,0.00,,,0.00,WeatherCatV1.15B25,2013-06-29 13:44:00,
2013-06-29 09:49:00,81.5,76.9,29.82,South,180,0.0,0.0,86,0.00,,,0.00,WeatherCatV1.15B25,2013-06-29 13:49:00,
2013-06-29 09:54:00,81.7,77.1,29.81,South,180,0.0,0.0,86,0.00,,,0.00,WeatherCatV1.15B25,2013-06-29 13:54:00,
2013-06-29 09:59:00,81.7,76.7,29.81,SSW,202,0.0,0.0,85,0.00,,,0.00,WeatherCatV1.15B25,2013-06-29 13:59:00,
2013-06-29 10:04:00,82.0,77.1,29.81,SW,225,0.9,0.9,85,0.00,,,0.00,WeatherCatV1.15B25,2013-06-29 14:04:00,
2013-06-29 10:09:00,82.2,76.9,29.81,West,270,1.8,1.8,84,0.00,,,0.00,WeatherCatV1.15B25,2013-06-29 14:09:00,
2013-06-29 10:14:00,82.6,77.3,29.82,WNW,292,1.3,1.3,84,0.00,,,0.00,WeatherCatV1.15B25,2013-06-29 14:14:00,
2013-06-29 10:19:00,82.9,77.6,29.81,West,270,0.0,0.9,84,0.00,,,0.00,WeatherCatV1.15B25,2013-06-29 14:19:00,
2013-06-29 10:25:00,82.9,77.3,29.81,WSW,247,0.0,1.3,83,0.00,,,0.00,WeatherCatV1.15B25,2013-06-29 14:25:00,
2013-06-29 10:30:00,83.1,77.1,29.81,WNW,292,10.5,10.5,82,0.00,,,0.00,WeatherCatV1.15B25,2013-06-29 14:30:00,
2013-06-29 10:35:00,83.1,76.7,29.81,WSW,247,0.0,0.0,81,0.00,,,0.00,WeatherCatV1.15B25,2013-06-29 14:35:00,
2013-06-29 10:40:00,82.9,76.6,29.81,SSW,202,0.0,1.3,81,0.00,,,0.00,WeatherCatV1.15B25,2013-06-29 14:40:00,
2013-06-29 10:45:00,82.9,76.6,29.81,SSE,157,0.0,0.0,81,0.00,,,0.00,WeatherCatV1.15B25,2013-06-29 14:45:00,
2013-06-29 10:50:00,82.8,76.1,29.81,SW,225,0.0,1.6,80,0.00,,,0.00,WeatherCatV1.15B25,2013-06-29 14:50:00,
2013-06-29 10:55:00,82.8,76.1,29.81,SSW,202,0.0,0.0,80,0.00,,,0.00,WeatherCatV1.15B25,2013-06-29 14:55:00,
2013-06-29 11:00:00,82.8,76.1,29.81,West,270,1.6,1.6,80,0.00,,,0.00,WeatherCatV1.15B25,2013-06-29 15:00:00,
2013-06-29 11:05:00,82.8,75.7,29.82,SW,225,1.8,1.8,79,0.00,,,0.00,WeatherCatV1.15B25,2013-06-29 15:05:00,
2013-06-29 11:10:00,82.6,75.5,29.82,WSW,247,0.0,0.0,79,0.00,,,0.00,WeatherCatV1.15B25,2013-06-29 15:10:00,
2013-06-29 11:15:00,82.6,75.5,29.82,West,270,0.0,0.0,79,0.00,,,0.00,WeatherCatV1.15B25,2013-06-29 15:15:00,
2013-06-29 11:20:00,82.6,75.5,29.81,WSW,247,1.6,1.6,79,0.00,,,0.00,WeatherCatV1.15B25,2013-06-29 15:20:00,
2013-06-29 11:25:00,82.2,75.1,29.82,WSW,247,0.9,0.9,79,0.00,,,0.00,WeatherCatV1.15B25,2013-06-29 15:25:00,
2013-06-29 11:30:00,82.2,75.1,29.82,NNW,337,5.4,5.4,79,0.00,,,0.00,WeatherCatV1.15B25,2013-06-29 15:30:00,
2013-06-29 11:35:00,82.0,74.6,29.82,WSW,247,0.0,0.0,78,0.00,,,0.00,WeatherCatV1.15B25,2013-06-29 15:35:00,
2013-06-29 11:40:00,82.0,74.6,29.82,SSW,202,1.3,1.3,78,0.00,,,0.00,WeatherCatV1.15B25,2013-06-29 15:40:00,
2013-06-29 11:45:00,81.9,74.4,29.82,SSW,202,0.9,0.9,78,0.00,,,0.00,WeatherCatV1.15B25,2013-06-29 15:45:00,
2013-06-29 11:50:00,81.5,74.2,29.82,SW,225,0.0,0.0,78,0.00,,,0.00,WeatherCatV1.15B25,2013-06-29 15:50:00,
2013-06-29 11:55:00,81.3,73.8,29.82,WSW,247,0.9,0.9,78,0.00,,,0.00,WeatherCatV1.15B25,2013-06-29 15:55:00,
2013-06-29 12:00:00,81.3,73.8,29.82,West,270,0.9,0.9,78,0.00,,,0.00,WeatherCatV1.15B25,2013-06-29 16:00:00,
2013-06-29 12:05:00,81.1,73.3,29.82,SW,225,2.0,6.9,77,0.00,,,0.00,WeatherCatV1.15B25,2013-06-29 16:05:00,
2013-06-29 12:10:00,81.0,73.5,29.82,SW,225,0.0,0.0,78,0.00,,,0.00,WeatherCatV1.15B25,2013-06-29 16:10:00,
2013-06-29 12:15:00,81.1,73.7,29.82,SW,225,0.0,0.0,78,0.00,,,0.00,WeatherCatV1.15B25,2013-06-29 16:15:00,
2013-06-29 12:20:00,81.3,73.8,29.82,WSW,247,0.0,1.3,78,0.00,,,0.00,WeatherCatV1.15B25,2013-06-29 16:20:00,
2013-06-29 12:25:00,81.3,73.8,29.82,WSW,247,0.0,0.0,78,0.00,,,0.00,WeatherCatV1.15B25,2013-06-29 16:25:00,
2013-06-29 12:30:00,81.3,73.8,29.82,SW,225,0.0,0.0,78,0.00,,,0.00,WeatherCatV1.15B25,2013-06-29 16:30:00,
2013-06-29 12:35:00,81.7,74.2,29.82,West,270,1.6,1.6,78,0.00,,,0.00,WeatherCatV1.15B25,2013-06-29 16:35:00,
2013-06-29 12:40:00,82.0,74.6,29.82,WSW,247,1.6,1.6,78,0.00,,,0.00,WeatherCatV1.15B25,2013-06-29 16:40:00,
2013-06-29 12:45:00,82.2,74.7,29.82,SSW,202,0.0,0.0,78,0.00,,,0.00,WeatherCatV1.15B25,2013-06-29 16:45:00,
2013-06-29 12:50:00,82.6,75.1,29.81,WSW,247,1.1,1.1,78,0.00,,,0.00,WeatherCatV1.15B25,2013-06-29 16:50:00,
2013-06-29 12:55:00,82.6,75.1,29.81,West,270,0.0,1.8,78,0.00,,,0.00,WeatherCatV1.15B25,2013-06-29 16:55:00,
2013-06-29 13:00:00,82.8,75.2,29.81,SSW,202,1.3,1.3,78,0.00,,,0.00,WeatherCatV1.15B25,2013-06-29 17:00:00,
2013-06-29 13:05:00,82.9,75.0,29.81,WSW,247,0.7,2.9,77,0.00,,,0.00,WeatherCatV1.15B25,2013-06-29 17:05:00,
2013-06-29 13:10:00,82.9,75.0,29.81,WSW,247,0.0,0.0,77,0.00,,,0.00,WeatherCatV1.15B25,2013-06-29 17:10:00,
2013-06-29 13:15:00,83.1,75.2,29.81,SW,225,0.0,0.0,77,0.00,,,0.00,WeatherCatV1.15B25,2013-06-29 17:15:00,
2013-06-29 13:20:00,83.1,75.2,29.81,SW,225,0.0,0.0,77,0.00,,,0.00,WeatherCatV1.15B25,2013-06-29 17:20:00,
2013-06-29 13:25:00,83.1,75.2,29.81,SW,225,1.1,1.1,77,0.00,,,0.00,WeatherCatV1.15B25,2013-06-29 17:25:00,
2013-06-29 13:30:00,83.1,75.2,29.81,SSW,202,1.1,1.1,77,0.00,,,0.00,WeatherCatV1.15B25,2013-06-29 17:30:00,
2013-06-29 13:35:00,82.9,75.0,29.81,SW,225,1.8,1.8,77,0.00,,,0.00,WeatherCatV1.15B25,2013-06-29 17:35:00,
2013-06-29 13:40:00,82.9,75.0,29.82,SSW,202,0.9,0.9,77,0.00,,,0.00,WeatherCatV1.15B25,2013-06-29 17:40:00,
2013-06-29 13:45:00,82.8,74.8,29.81,SW,225,0.0,0.0,77,0.00,,,0.00,WeatherCatV1.15B25,2013-06-29 17:45:00,
2013-06-29 13:50:00,82.9,75.0,29.81,SSW,202,0.0,0.9,77,0.00,,,0.00,WeatherCatV1.15B25,2013-06-29 17:50:00,
2013-06-29 13:55:00,82.9,75.0,29.81,WSW,247,2.2,2.2,77,0.00,,,0.00,WeatherCatV1.15B25,2013-06-29 17:55:00,
2013-06-29 14:00:00,83.1,75.2,29.81,SSW,202,0.0,0.0,77,0.00,,,0.00,WeatherCatV1.15B25,2013-06-29 18:00:00,
2013-06-29 14:05:00,83.5,75.5,29.81,SSE,157,0.0,3.8,77,0.00,,,0.00,WeatherCatV1.15B25,2013-06-29 18:05:00,
2013-06-29 14:10:00,83.8,75.8,29.80,SSE,157,1.3,1.3,77,0.00,,,0.00,WeatherCatV1.15B25,2013-06-29 18:10:00,
2013-06-29 14:15:00,84.0,76.0,29.81,SSW,202,0.0,0.0,77,0.00,,,0.00,WeatherCatV1.15B25,2013-06-29 18:15:00,
2013-06-29 14:20:00,83.8,75.4,29.80,SW,225,0.0,0.0,76,0.00,,,0.00,WeatherCatV1.15B25,2013-06-29 18:20:00,
2013-06-29 14:25:00,83.7,75.3,29.81,SW,225,1.3,1.3,76,0.00,,,0.00,WeatherCatV1.15B25,2013-06-29 18:25:00,
2013-06-29 14:30:00,83.5,75.1,29.80,SW,225,0.0,0.0,76,0.00,,,0.00,WeatherCatV1.15B25,2013-06-29 18:30:00,
2013-06-29 14:35:00,83.5,75.1,29.81,South,180,0.0,0.0,76,0.00,,,0.00,WeatherCatV1.15B25,2013-06-29 18:35:00,
2013-06-29 14:40:00,83.3,74.9,29.80,SSE,157,0.9,0.9,76,0.00,,,0.00,WeatherCatV1.15B25,2013-06-29 18:40:00,
2013-06-29 14:45:00,83.3,74.9,29.80,WSW,247,0.0,0.0,76,0.00,,,0.00,WeatherCatV1.15B25,2013-06-29 18:45:00,
2013-06-29 14:50:00,83.5,75.1,29.80,South,180,0.0,0.0,76,0.00,,,0.00,WeatherCatV1.15B25,2013-06-29 18:50:00,
2013-06-29 14:55:00,83.8,75.4,29.80,South,180,0.0,0.0,76,0.00,,,0.00,WeatherCatV1.15B25,2013-06-29 18:55:00,
2013-06-29 15:00:00,84.0,75.6,29.79,WSW,247,0.0,0.0,76,0.00,,,0.00,WeatherCatV1.15B25,2013-06-29 19:00:00,
2013-06-29 15:05:00,84.7,76.3,29.79,SW,225,0.0,0.0,76,0.00,,,0.00,WeatherCatV1.15B25,2013-06-29 19:05:00,
2013-06-29 15:10:00,85.1,76.3,29.78,SSW,202,0.0,0.0,75,0.00,,,0.00,WeatherCatV1.15B25,2013-06-29 19:10:00,
2013-06-29 15:15:00,85.5,76.2,29.78,SSW,202,0.0,0.0,74,0.00,,,0.00,WeatherCatV1.15B25,2013-06-29 19:15:00,
2013-06-29 15:20:00,85.6,76.4,29.78,WSW,247,0.0,0.0,74,0.00,,,0.00,WeatherCatV1.15B25,2013-06-29 19:20:00,
2013-06-29 15:25:00,85.8,76.2,29.78,WNW,292,1.6,1.6,73,0.00,,,0.00,WeatherCatV1.15B25,2013-06-29 19:25:00,
2013-06-29 15:30:00,85.8,76.2,29.77,SW,225,0.0,0.0,73,0.00,,,0.00,WeatherCatV1.15B25,2013-06-29 19:30:00,
2013-06-29 15:35:00,86.2,76.2,29.77,West,270,0.0,1.6,72,0.00,,,0.00,WeatherCatV1.15B25,2013-06-29 19:35:00,
2013-06-29 15:40:00,86.2,76.2,29.77,West,270,2.0,2.0,72,0.00,,,0.00,WeatherCatV1.15B25,2013-06-29 19:40:00,
2013-06-29 15:45:00,86.2,75.8,29.77,SW,225,0.0,0.0,71,0.00,,,0.00,WeatherCatV1.15B25,2013-06-29 19:45:00,
2013-06-29 15:50:00,86.2,75.8,29.77,SW,225,0.0,1.6,71,0.00,,,0.00,WeatherCatV1.15B25,2013-06-29 19:50:00,
2013-06-29 15:55:00,86.2,75.8,29.77,North,0,2.0,2.0,71,0.00,,,0.00,WeatherCatV1.15B25,2013-06-29 19:55:00,
2013-06-29 16:00:00,86.5,76.1,29.77,SSW,202,0.0,0.0,71,0.00,,,0.00,WeatherCatV1.15B25,2013-06-29 20:00:00,
2013-06-29 16:05:00,86.7,76.2,29.77,WSW,247,2.5,2.5,71,0.00,,,0.00,WeatherCatV1.15B25,2013-06-29 20:05:00,
2013-06-29 16:10:00,87.1,76.2,29.77,SW,225,3.6,3.6,70,0.00,,,0.00,WeatherCatV1.15B25,2013-06-29 20:10:00,
2013-06-29 16:15:00,87.4,76.5,29.77,West,270,1.1,1.1,70,0.00,,,0.00,WeatherCatV1.15B25,2013-06-29 20:15:00,
2013-06-29 16:20:00,88.0,77.0,29.76,SW,225,0.0,1.3,70,0.00,,,0.00,WeatherCatV1.15B25,2013-06-29 20:20:00,
2013-06-29 16:25:00,88.3,76.4,29.76,NW,315,3.6,3.6,68,0.00,,,0.00,WeatherCatV1.15B25,2013-06-29 20:25:00,
2013-06-29 16:30:00,88.3,76.4,29.76,South,180,2.7,2.7,68,0.00,,,0.00,WeatherCatV1.15B25,2013-06-29 20:30:00,
2013-06-29 16:35:00,88.9,77.0,29.77,South,180,0.0,0.0,68,0.00,,,0.00,WeatherCatV1.15B25,2013-06-29 20:35:00,
2013-06-29 16:40:00,89.2,77.3,29.76,SSE,157,0.0,0.0,68,0.00,,,0.00,WeatherCatV1.15B25,2013-06-29 20:40:00,
2013-06-29 16:45:00,89.2,77.3,29.76,SW,225,0.0,0.0,68,0.00,,,0.00,WeatherCatV1.15B25,2013-06-29 20:45:00,
2013-06-29 16:50:00,89.2,77.3,29.76,SW,225,0.9,0.9,68,0.00,,,0.00,WeatherCatV1.15B25,2013-06-29 20:50:00,
2013-06-29 16:55:00,89.2,77.3,29.76,WSW,247,0.0,0.0,68,0.00,,,0.00,WeatherCatV1.15B25,2013-06-29 20:55:00,
2013-06-29 17:00:00,89.2,77.3,29.77,NW,315,1.6,1.6,68,0.00,,,0.00,WeatherCatV1.15B25,2013-06-29 21:00:00,
2013-06-29 17:05:00,89.2,77.3,29.76,SW,225,0.0,0.0,68,0.00,,,0.00,WeatherCatV1.15B25,2013-06-29 21:05:00,
2013-06-29 17:10:00,88.9,77.0,29.76,SSW,202,0.0,0.0,68,0.00,,,0.00,WeatherCatV1.15B25,2013-06-29 21:10:00,
2013-06-29 17:15:00,88.3,76.0,29.76,WSW,247,1.1,1.1,67,0.00,,,0.00,WeatherCatV1.15B25,2013-06-29 21:15:00,
2013-06-29 17:20:00,88.2,76.3,29.76,SW,225,0.0,0.0,68,0.00,,,0.00,WeatherCatV1.15B25,2013-06-29 21:20:00,
2013-06-29 17:25:00,87.8,75.9,29.76,SSW,202,0.0,0.0,68,0.00,,,0.00,WeatherCatV1.15B25,2013-06-29 21:25:00,
2013-06-29 17:30:00,87.6,76.2,29.77,SW,225,0.0,0.0,69,0.00,,,0.00,WeatherCatV1.15B25,2013-06-29 21:30:00,
2013-06-29 17:35:00,86.7,75.8,29.77,West,270,0.0,0.0,70,0.00,,,0.00,WeatherCatV1.15B25,2013-06-29 21:35:00,
2013-06-29 17:40:00,86.2,75.4,29.77,WSW,247,0.0,0.0,70,0.00,,,0.00,WeatherCatV1.15B25,2013-06-29 21:40:00,
2013-06-29 17:45:00,86.2,75.8,29.77,SSW,202,0.0,0.0,71,0.00,,,0.00,WeatherCatV1.15B25,2013-06-29 21:45:00,
2013-06-29 17:50:00,85.8,75.8,29.76,SSW,202,0.0,0.0,72,0.00,,,0.00,WeatherCatV1.15B25,2013-06-29 21:50:00,
2013-06-29 17:55:00,85.5,75.5,29.77,SW,225,0.0,0.0,72,0.00,,,0.00,WeatherCatV1.15B25,2013-06-29 21:55:00,
2013-06-29 18:00:00,85.3,75.7,29.77,SW,225,0.0,0.0,73,0.00,,,0.00,WeatherCatV1.15B25,2013-06-29 22:00:00,
2013-06-29 18:05:00,85.1,75.5,29.76,SSW,202,0.0,0.0,73,0.00,,,0.00,WeatherCatV1.15B25,2013-06-29 22:05:00,
2013-06-29 18:10:00,84.9,75.3,29.76,SSW,202,0.0,0.0,73,0.00,,,0.00,WeatherCatV1.15B25,2013-06-29 22:10:00,
2013-06-29 18:15:00,84.7,75.1,29.76,SSW,202,0.0,0.0,73,0.00,,,0.00,WeatherCatV1.15B25,2013-06-29 22:15:00,
2013-06-29 18:20:00,84.6,75.3,29.76,South,180,0.0,0.0,74,0.00,,,0.00,WeatherCatV1.15B25,2013-06-29 22:20:00,
2013-06-29 18:25:00,84.4,75.6,29.75,SW,225,0.0,0.0,75,0.00,,,0.00,WeatherCatV1.15B25,2013-06-29 22:25:00,
2013-06-29 18:30:00,84.4,75.6,29.76,SW,225,0.0,0.0,75,0.00,,,0.00,WeatherCatV1.15B25,2013-06-29 22:30:00,
2013-06-29 18:35:00,84.0,75.2,29.75,SW,225,0.9,0.9,75,0.00,,,0.00,WeatherCatV1.15B25,2013-06-29 22:35:00,
2013-06-29 18:40:00,84.0,75.2,29.76,SW,225,0.0,0.0,75,0.00,,,0.00,WeatherCatV1.15B25,2013-06-29 22:40:00,
2013-06-29 18:45:00,84.0,75.6,29.76,SSW,202,0.0,0.0,76,0.00,,,0.00,WeatherCatV1.15B25,2013-06-29 22:45:00,
2013-06-29 18:50:00,83.8,75.4,29.76,WSW,247,0.0,0.9,76,0.00,,,0.00,WeatherCatV1.15B25,2013-06-29 22:50:00,
2013-06-29 18:55:00,83.8,75.4,29.77,SW,225,0.0,0.0,76,0.00,,,0.00,WeatherCatV1.15B25,2013-06-29 22:55:00,
2013-06-29 19:00:00,83.5,75.1,29.77,SSW,202,0.0,0.0,76,0.00,,,0.00,WeatherCatV1.15B25,2013-06-29 23:00:00,
2013-06-29 19:05:00,83.5,75.1,29.77,SSW,202,0.0,0.0,76,0.00,,,0.00,WeatherCatV1.15B25,2013-06-29 23:05:00,
2013-06-29 19:10:00,83.3,74.9,29.77,SSW,202,0.0,0.0,76,0.00,,,0.00,WeatherCatV1.15B25,2013-06-29 23:10:00,
2013-06-29 19:15:00,83.1,74.8,29.77,SSW,202,0.0,0.0,76,0.00,,,0.00,WeatherCatV1.15B25,2013-06-29 23:15:00,
2013-06-29 19:20:00,82.9,75.0,29.77,SSW,202,0.0,0.0,77,0.00,,,0.00,WeatherCatV1.15B25,2013-06-29 23:20:00,
2013-06-29 19:25:00,82.9,75.0,29.77,SW,225,0.0,0.0,77,0.00,,,0.00,WeatherCatV1.15B25,2013-06-29 23:25:00,
2013-06-29 19:30:00,82.8,74.8,29.77,SSW,202,0.0,0.0,77,0.00,,,0.00,WeatherCatV1.15B25,2013-06-29 23:30:00,
2013-06-29 19:35:00,82.4,74.5,29.78,SSW,202,0.0,0.0,77,0.00,,,0.00,WeatherCatV1.15B25,2013-06-29 23:35:00,
2013-06-29 19:40:00,82.2,74.3,29.78,SSW,202,0.0,0.0,77,0.00,,,0.00,WeatherCatV1.15B25,2013-06-29 23:40:00,
2013-06-29 19:45:00,82.2,74.3,29.78,SW,225,0.0,0.0,77,0.00,,,0.00,WeatherCatV1.15B25,2013-06-29 23:45:00,
2013-06-29 19:50:00,82.0,74.1,29.78,SSW,202,0.0,0.0,77,0.00,,,0.00,WeatherCatV1.15B25,2013-06-29 23:50:00,
2013-06-29 19:55:00,81.7,73.8,29.78,SSW,202,0.0,0.0,77,0.00,,,0.00,WeatherCatV1.15B25,2013-06-29 23:55:00,
2013-06-29 20:00:00,81.5,73.6,29.79,SSW,202,0.0,0.0,77,0.00,,,0.00,WeatherCatV1.15B25,2013-06-30 00:00:00,
2013-06-29 20:05:00,81.3,73.4,29.78,SSW,202,0.0,0.0,77,0.00,,,0.00,WeatherCatV1.15B25,2013-06-30 00:05:00,
2013-06-29 20:10:00,81.1,73.3,29.78,SSW,202,0.0,0.0,77,0.00,,,0.00,WeatherCatV1.15B25,2013-06-30 00:10:00,
2013-06-29 20:15:00,81.1,73.3,29.78,SSW,202,0.0,0.0,77,0.00,,,0.00,WeatherCatV1.15B25,2013-06-30 00:15:00,
2013-06-29 20:20:00,81.1,73.3,29.78,SSW,202,0.0,0.0,77,0.00,,,0.00,WeatherCatV1.15B25,2013-06-30 00:20:00,
2013-06-29 20:25:00,81.0,73.5,29.79,SSW,202,0.0,0.0,78,0.00,,,0.00,WeatherCatV1.15B25,2013-06-30 00:25:00,
2013-06-29 20:30:00,80.8,73.3,29.79,SSW,202,0.0,0.0,78,0.00,,,0.00,WeatherCatV1.15B25,2013-06-30 00:30:00,
2013-06-29 20:35:00,80.8,73.3,29.79,SSW,202,0.0,0.0,78,0.00,,,0.00,WeatherCatV1.15B25,2013-06-30 00:35:00,
2013-06-29 20:40:00,80.4,73.0,29.79,South,180,0.0,0.0,78,0.00,,,0.00,WeatherCatV1.15B25,2013-06-30 00:40:00,
2013-06-29 20:45:00,80.4,73.0,29.78,South,180,0.0,0.0,78,0.00,,,0.00,WeatherCatV1.15B25,2013-06-30 00:45:00,
2013-06-29 20:50:00,80.4,73.4,29.79,SW,225,0.0,0.0,79,0.00,,,0.00,WeatherCatV1.15B25,2013-06-30 00:50:00,
2013-06-29 20:55:00,80.2,73.2,29.79,South,180,0.0,0.0,79,0.00,,,0.00,WeatherCatV1.15B25,2013-06-30 00:55:00,
2013-06-29 21:00:00,80.1,73.0,29.79,SSW,202,0.0,0.0,79,0.00,,,0.00,WeatherCatV1.15B25,2013-06-30 01:00:00,
2013-06-29 21:05:00,79.9,72.4,29.79,SSW,202,0.0,0.0,78,0.00,,,0.00,WeatherCatV1.15B25,2013-06-30 01:05:00,
2013-06-29 21:10:00,79.9,72.4,29.79,SW,225,0.0,0.0,78,0.00,,,0.00,WeatherCatV1.15B25,2013-06-30 01:10:00,
2013-06-29 21:15:00,79.7,72.2,29.79,SW,225,0.0,0.0,78,0.00,,,0.00,WeatherCatV1.15B25,2013-06-30 01:15:00,
2013-06-29 21:20:00,79.7,72.2,29.79,SW,225,0.0,0.0,78,0.00,,,0.00,WeatherCatV1.15B25,2013-06-30 01:20:00,
2013-06-29 21:25:00,79.5,72.1,29.80,SW,225,0.0,0.0,78,0.00,,,0.00,WeatherCatV1.15B25,2013-06-30 01:25:00,
2013-06-29 21:30:00,79.5,72.1,29.80,SSW,202,0.0,0.0,78,0.00,,,0.00,WeatherCatV1.15B25,2013-06-30 01:30:00,
2013-06-29 21:35:00,79.3,71.9,29.80,SW,225,0.0,0.0,78,0.00,,,0.00,WeatherCatV1.15B25,2013-06-30 01:35:00,
2013-06-29 21:40:00,79.3,71.9,29.80,SSW,202,0.0,0.0,78,0.00,,,0.00,WeatherCatV1.15B25,2013-06-30 01:40:00,
2013-06-29 21:45:00,79.2,71.7,29.80,SSW,202,0.0,0.0,78,0.00,,,0.00,WeatherCatV1.15B25,2013-06-30 01:45:00,
2013-06-29 21:50:00,79.0,71.5,29.80,SSW,202,0.0,0.0,78,0.00,,,0.00,WeatherCatV1.15B25,2013-06-30 01:50:00,
2013-06-29 21:55:00,79.0,71.5,29.80,SSW,202,0.0,0.0,78,0.00,,,0.00,WeatherCatV1.15B25,2013-06-30 01:55:00,
2013-06-29 22:00:00,78.8,71.7,29.80,SSW,202,0.0,0.0,79,0.00,,,0.00,WeatherCatV1.15B25,2013-06-30 02:00:00,
2013-06-29 22:05:00,78.6,71.2,29.81,SSW,202,0.0,0.0,78,0.00,,,0.00,WeatherCatV1.15B25,2013-06-30 02:05:00,
2013-06-29 22:10:00,78.6,71.2,29.81,SSW,202,0.0,0.0,78,0.00,,,0.00,WeatherCatV1.15B25,2013-06-30 02:10:00,
2013-06-29 22:15:00,78.6,71.6,29.80,SW,225,0.0,0.0,79,0.00,,,0.00,WeatherCatV1.15B25,2013-06-30 02:15:00,
2013-06-29 22:20:00,78.4,71.4,29.81,SW,225,0.0,0.0,79,0.00,,,0.00,WeatherCatV1.15B25,2013-06-30 02:20:00,
2013-06-29 22:25:00,78.4,71.4,29.81,SW,225,0.0,0.0,79,0.00,,,0.00,WeatherCatV1.15B25,2013-06-30 02:25:00,
2013-06-29 22:30:00,78.3,71.2,29.81,SW,225,0.0,0.0,79,0.00,,,0.00,WeatherCatV1.15B25,2013-06-30 02:30:00,
2013-06-29 22:35:00,78.1,71.4,29.80,SW,225,0.0,0.0,80,0.00,,,0.00,WeatherCatV1.15B25,2013-06-30 02:35:00,
2013-06-29 22:40:00,78.1,71.4,29.81,SW,225,0.0,0.0,80,0.00,,,0.00,WeatherCatV1.15B25,2013-06-30 02:40:00,
2013-06-29 22:45:00,77.9,71.2,29.81,SW,225,0.0,0.0,80,0.00,,,0.00,WeatherCatV1.15B25,2013-06-30 02:45:00,
2013-06-29 22:50:00,77.9,71.2,29.81,SW,225,0.0,0.0,80,0.00,,,0.00,WeatherCatV1.15B25,2013-06-30 02:50:00,
2013-06-29 22:55:00,77.7,71.1,29.81,SW,225,0.0,0.0,80,0.00,,,0.00,WeatherCatV1.15B25,2013-06-30 02:55:00,
2013-06-29 23:00:00,77.5,71.1,29.81,SW,225,0.0,0.0,80,0.00,,,0.00,WeatherCatV1.15B25,2013-06-30 03:00:00,
2013-06-29 23:05:00,77.5,70.9,29.81,SW,225,0.0,0.0,80,0.00,,,0.00,WeatherCatV1.15B25,2013-06-30 03:05:00,
2013-06-29 23:10:00,77.5,70.9,29.81,SW,225,0.0,0.0,80,0.00,,,0.00,WeatherCatV1.15B25,2013-06-30 03:10:00,
2013-06-29 23:15:00,77.5,71.2,29.81,SW,225,0.0,0.0,81,0.00,,,0.00,WeatherCatV1.15B25,2013-06-30 03:15:00,
2013-06-29 23:20:00,77.4,71.1,29.81,SSW,202,0.0,0.0,81,0.00,,,0.00,WeatherCatV1.15B25,2013-06-30 03:20:00,
2013-06-29 23:25:00,77.4,71.1,29.81,SW,225,0.0,0.0,81,0.00,,,0.00,WeatherCatV1.15B25,2013-06-30 03:25:00,
2013-06-29 23:30:00,77.4,71.1,29.81,SW,225,0.0,0.0,81,0.00,,,0.00,WeatherCatV1.15B25,2013-06-30 03:30:00,
2013-06-29 23:35:00,77.2,70.9,29.81,SW,225,0.0,0.0,81,0.00,,,0.00,WeatherCatV1.15B25,2013-06-30 03:35:00,
2013-06-29 23:40:00,77.2,70.9,29.81,SW,225,0.0,0.0,81,0.00,,,0.00,WeatherCatV1.15B25,2013-06-30 03:40:00,
2013-06-29 23:45:00,77.2,71.2,29.81,SSW,202,0.0,0.0,82,0.00,,,0.00,WeatherCatV1.15B25,2013-06-30 03:45:00,
2013-06-29 23:50:00,77.2,71.2,29.81,SW,225,0.0,0.0,82,0.00,,,0.00,WeatherCatV1.15B25,2013-06-30 03:50:00,
2013-06-29 23:55:00,77.0,71.1,29.81,SW,225,0.0,0.0,82,0.00,,,0.00,WeatherCatV1.15B25,2013-06-30 03:55:00,